Regional Weather Roundup
Issued by NWS

Home | Current Version | Previous Version | Graphics & Text | Print | Product List | Glossary On
Versions: 1 2 3 4 5 6 7 8 9 10 11 12 13 14 15 16 17 18 19 20 21 22 23 24 25 26 27 28 29 30 31 32 33 34 35 36 37 38 39 40 41 42 43 44 45 46 47 48 49 50
000
ASUS43 KTOP 260259
RWRKS

WEATHER ROUNDUP FOR KANSAS
NATIONAL WEATHER SERVICE GOODLAND KS
1000 PM CDT FRI MAY 25 2018

NOTE:  "FAIR" INDICATES FEW OR NO CLOUDS BELOW 12,000 FEET WITH NO
SIGNIFICANT WEATHER AND/OR OBSTRUCTIONS TO VISIBILITY.

KSZ001>006-013>018-027>032-041>047-260400-
NORTHWEST KANSAS

CITY           SKY/WX    TMP DP  RH WIND       PRES   REMARKS
GOODLAND       CLEAR     71  53  52 S10       29.91R
HAYS           CLEAR     75  64  68 S10       29.84S
HILL CITY      CLEAR     77  61  57 S6        29.84R
RUSSELL        CLEAR     75  67  76 S10       29.82R
$$

KSZ061>065-074>080-084>089-260400-
SOUTHWEST KANSAS

CITY           SKY/WX    TMP DP  RH WIND       PRES   REMARKS
DODGE CITY     CLEAR     75  59  57 SE9       29.89S
GARDEN CITY    CLOUDY    76  58  53 SE10      29.89S
GREAT BEND     CLEAR     72  66  81 S9        29.85R
LIBERAL        CLEAR     80  66  62 E10       29.91R
$$

KSZ066>073-081>083-090>101-260400-
SOUTHEAST KANSAS

CITY           SKY/WX    TMP DP  RH WIND       PRES   REMARKS
CHANUTE        CLEAR     73  69  87 S7        29.84R
COFFEYVILLE    MOCLDY    73  66  78 S3        29.84R
HUTCHINSON     CLEAR     74  67  78 S7        29.83R
MEDICINE LODGE   N/A     76  67  73 E7        29.85S
NEWTON         CLEAR     74  65  73 S8        29.85R
PARSONS        CLOUDY    70  69  97 CALM      29.86R
WICHITA INTL   CLEAR     74  66  76 S6        29.84R
WICHITA JABRA  CLEAR     75  64  68 S7        29.84R
WICHITA MCCONL CLEAR     74  64  72 SW8       29.84R
WINFIELD       CLEAR     71  63  75 S7        29.85S
$$

KSZ007>012-019>026-033>040-048>060-102>105-260400-
NORTHEAST KANSAS

CITY           SKY/WX    TMP DP  RH WIND       PRES   REMARKS
CONCORDIA      CLEAR     77  66  68 S10       29.79S
EMPORIA        CLEAR     71  67  87 S8        29.82R
LAWRENCE       CLEAR     74  70  87 E6        29.80R
MANHATTAN      CLEAR     76  65  68 SW7       29.78S
OLATHE IND     CLEAR     73  68  84 SE6       29.83R
OLATHE EXE     CLEAR     72  67  84 S3        29.83R
SALINA         CLEAR     76  68  76 S7        29.80S
TOPEKA BILLARD CLEAR     79  69  71 S5        29.79R
TOPEKA FORBES  CLEAR     77  69  76 S6        29.81R
$$




USA.gov is the U.S. government's official web portal to all federal, state and local government web resources and services.